Regional Weather Roundup
Issued by NWS

Home | Current Version | Previous Version | Graphics & Text | Print | Product List | Glossary On
Versions: 1 2 3 4 5 6 7 8 9 10 11 12 13 14 15 16 17 18 19 20 21 22 23 24 25 26 27 28 29 30 31 32 33 34 35 36 37 38 39 40 41 42 43 44 45 46 47 48 49 50
000
ASUS43 KFSD 240210
RWRSD

WEATHER ROUNDUP FOR SOUTH DAKOTA
NATIONAL WEATHER SERVICE SIOUX FALLS SD
900 PM CDT WED JUL 23 2014

NOTE: "FAIR" INDICATES FEW OR NO CLOUDS BELOW 12,000 FEET WITH NO
SIGNIFICANT WEATHER AND/OR OBSTRUCTIONS TO VISIBILITY.


SDZ001>005-009-010-012>017-240300-
NORTHWEST AND NORTH CENTRAL SOUTH DAKOTA

CITY           SKY/WX    TMP DP  RH WIND       PRES   REMARKS
BUFFALO          N/A     78  64  61 E17       29.97R
FAITH            N/A     76  57  51 SE22G30   30.05F
MOBRIDGE       CLEAR     74  58  57 SE12      30.09R
$$

SDZ012>016-024>037-041>051-057-063-072>074-240300-
SOUTHWEST AND SOUTH CENTRAL SOUTH DAKOTA

CITY           SKY/WX    TMP DP  RH WIND       PRES   REMARKS
RAPID CTY ARPT CLEAR     76  67  73 SE5       30.06F
PIERRE         PTCLDY    78  53  41 SE15      30.07F
CUSTER         MOCLDY    72  64  76 SE3       30.24S
ELLSWORTH AFB  CLEAR     79  67  66 SE10      30.06F
PHILIP         CLEAR     83  58  42 SE13G22   30.05S
PINE RIDGE     PTCLDY    80  63  55 E12G21    30.07F
WINNER         FAIR      80  54  40 SE14      30.11F
$$

SDZ004>011-016>023-039-040-240300-
NORTHEAST SOUTH DAKOTA

CITY           SKY/WX    TMP DP  RH WIND       PRES   REMARKS
ABERDEEN       CLEAR     72  59  63 E6        30.15F
WATERTOWN      CLEAR     73  55  53 E6        30.18F
SISSETON         N/A     70  62  76 SE3       30.16F
$$

SDZ017-020-022-023-036>040-048>070-240300-
SOUTHEAST SOUTH DAKOTA

CITY           SKY/WX    TMP DP  RH WIND       PRES   REMARKS
SIOUX FALLS    PTCLDY    72  56  57 E5        30.17S
HURON          CLEAR     73  57  57 E9        30.13F
CHAMBERLAIN    CLEAR     75  57  53 SE12      30.12F
MITCHELL       CLEAR     72  62  71 SE6       30.15S
YANKTON        CLEAR     73  61  64 E5        30.15F
$$

ABBREVIATIONS USED IN REMARKS
   TC - TEMPERATURE IN CELSIUS
  WCI - WIND CHILL INDEX
   HX - HEAT INDEX
  VSB - VISIBILITY



USA.gov is the U.S. government's official web portal to all federal, state and local government web resources and services.